Miscellaneous Local Product
Issued by NWS North Platte, NE

Home | Current Version | Previous Version | Text Only | Print | Product List | Glossary On
Versions: 1 2 3 4 5 6 7 8 9 10 11 12 13 14 15 16 17 18 19 20 21 22 23 24 25 26 27 28 29 30 31 32 33 34 35 36 37 38 39 40 41 42 43 44 45 46 47 48 49 50
000
AXUS43 KLBF 280010
MISLBF


WESTERN AND NORTH CENTRAL NEBRASKA HOURLY WEATHER ROUNDUP
NATIONAL WEATHER SERVICE NORTH PLATTE NE
700 PM CDT WED AUG 27 2014

***STATIONS NOT REPORTING VARIABLES SUCH AS SKY/WEATHER OR
PRESSURE ARE PROVIDED BY THE NEBRASKA DEPARTMENT OF
ROADS...RAWS...AND APRS NETWORKS...AND ARE NOT UNDER
NATIONAL WEATHER SERVICE QUALITY CONTROL***

...OBSERVATIONS IN AND NEAR THE EASTERN PANHANDLE OF NEBRASKA...

CITY           SKY/WX    TMP DP  RH WIND       PRES   REMARKS
PINE RIDGE     CLOUDY    65  64  97 MISG      30.04F
CHADRON        CLOUDY    68  65  90 NE12      30.02F
ALLIANCE       PTSUNNY   70  62  76 N13       30.03F
SIDNEY         PTSUNNY   72  56  57 N12       30.05F
WHITECLAY        N/A     64  63  94 SE9         N/A
RUSHVILLE        N/A     67  65  94 NE14        N/A
GORDON           N/A     66  66 100 S5          N/A
LISCO            N/A     76  63  63 SE10        N/A
BIG SPRINGS      N/A     77  67  70 SE12        N/A
$$

...OBSERVATIONS IN NORTH CENTRAL NEBRASKA...

CITY           SKY/WX    TMP DP  RH WIND       PRES   REMARKS
VALENTINE      CLOUDY    73  66  78 S13       30.03S
THEDFORD       CLOUDY    73  67  83 SE10      30.04F
AINSWORTH      CLOUDY    71  64  79 SE6       30.04S
O`NEILL        CLOUDY    72  69  91 E7        30.05F
ORD            CLOUDY    75  69  81 SE7       30.02F
BROKEN BOW     PTSUNNY   73  68  84 SE9       30.04S
BROWNLEE         N/A     73  69  88 SE8         N/A
SPRINGVIEW       N/A     71  67  87 E3          N/A
ROSE             N/A     76  73  87 E8          N/A
NEWPORT          N/A     72  69  89 E8          N/A
SARGENT          N/A     73  68  85 CALM        N/A
COMSTOCK         N/A     79  75  86 S10         N/A
CHAMBERS         N/A     74  68  82 S3          N/A
EWING            N/A     72  69  90 E3          N/A
$$

...OBSERVATIONS IN SOUTHWEST NEBRASKA AND FAR NORTHEAST COLORADO...

CITY           SKY/WX    TMP DP  RH WIND       PRES   REMARKS
WRAY             N/A     80  63  55 SE9       29.98F
HOLYOKE        FAIR      79  66  65 SE7       29.99F
IMPERIAL       PTSUNNY   79  64  60 E15G22    29.99S
OGALLALA       PTSUNNY   70  64  83 E10       30.00F
NORTH PLATTE   LGT RAIN  69  66  90 SE16      30.02S
MCCOOK         LGT RAIN  70  68  93 SE15G21   30.01F FOG
LEXINGTON      LGT RAIN  73  70  93 SE8       30.04S
PAXTON           N/A     72  67  84 E7          N/A
SUTHERLAND       N/A     72  70  92 E8          N/A
BRADY            N/A     68  65  92 CALM        N/A
GOTHENBURG       N/A     71  65  82 E9          N/A
CALLAWAY         N/A     74  69  83 SE18        N/A
$$

...SOME WEATHER OBSERVATIONS FROM AROUND THE REGION...

CITY           SKY/WX    TMP DP  RH WIND       PRES   REMARKS
DENVER         PTSUNNY   65  56  72 N17       30.09R
LARAMIE        CLOUDY    60  45  57 W10G18    30.24F
CHEYENNE       CLOUDY    57  52  83 N10       30.18S
SCOTTSBLUFF    MOSUNNY   68  61  78 W7        30.05F
RAPID CITY     CLOUDY    69  62  78 SE6       30.06S
PIERRE         CLOUDY    75  66  73 SE12      30.00F
WINNER         CLOUDY    72  66  81 SE13      30.03F
SIOUX FALLS    CLOUDY    71  65  81 E9        30.08F
OMAHA          CLOUDY    73  68  84 E8        30.05F
GRAND ISLAND   CLOUDY    75  68  78 S9        30.04S
KANSAS CITY    CLOUDY    82  70  66 E8        30.04S
WICHITA        PTSUNNY   89  63  41 SE12      29.98S HX  90
HAYS           CLOUDY    81  66  61 SE12      29.99F
LIBERAL        PTSUNNY   81  64  57 SE16      30.02R
GOODLAND       PTSUNNY   81  62  52 S6        30.00F
$$



USA.gov is the U.S. government's official web portal to all federal, state and local government web resources and services.